Wind_Speed
37 36 36 36 34 33 32 31 30 28 27 26 25 25 24 23 24 24 23 23 23 23 24 24 25 25 26 27 28 29 30 31 32 33 34 36 37 38 39 40 41 41 41
39 38 38 37 36 35 34 33 32 30 29 28 27 27 25 25 25 25 25 25 25 25 25 26 26 26 27 28 29 30 31 32 33 35 36 37 38 40 41 42 42 42 43
40 40 39 39 38 37 36 34 33 32 31 30 29 28 27 27 26 26 26 26 26 26 27 27 27 28 28 29 30 31 32 33 34 36 37 38 40 41 42 43 43 44 44
42 42 41 40 40 39 37 36 35 33 32 32 31 30 29 28 28 27 27 27 27 27 28 28 28 29 29 30 31 32 33 34 36 37 39 40 41 42 43 44 45 45 46
45 44 43 42 41 40 39 38 37 35 34 33 32 31 30 29 29 28 28 28 28 28 28 29 29 30 30 31 32 33 34 35 37 38 40 41 42 43 44 45 46 47 47
46 45 44 43 43 42 41 40 39 37 36 35 34 33 32 31 30 29 29 28 29 29 29 29 30 30 31 31 32 34 35 36 38 39 41 42 43 45 45 46 47 48 48
48 47 46 45 44 44 42 42 41 39 38 37 36 34 33 32 31 30 30 29 30 30 30 30 30 31 31 32 33 35 36 37 39 40 42 43 45 46 47 47 48 49 49
49 48 48 47 46 45 44 43 42 41 39 38 37 36 34 33 32 31 31 30 30 31 31 31 31 31 32 33 34 35 37 38 40 42 43 44 46 47 47 48 49 50 49
50 49 49 48 47 46 45 44 42 41 40 39 38 37 36 34 33 32 32 32 32 31 31 31 31 32 32 33 35 36 38 39 41 42 44 45 46 47 47 48 49 49 49
51 50 49 49 48 46 45 45 43 42 41 40 39 38 37 36 35 33 33 33 33 32 32 32 32 33 33 34 35 37 38 40 42 43 45 46 46 47 48 48 49 49 49
51 51 49 49 48 48 46 45 44 43 42 41 40 39 37 37 36 35 34 34 34 34 34 33 34 34 34 35 36 38 39 41 43 44 45 46 47 48 48 49 49 49 48
50 51 50 49 49 49 48 46 45 44 43 42 41 40 38 37 36 36 35 35 35 34 34 34 35 35 36 37 38 39 40 42 44 45 46 47 48 48 48 48 48 48 48
50 50 51 50 49 49 48 47 46 45 44 43 42 40 39 38 38 37 37 36 36 35 35 35 35 36 37 38 39 40 41 42 44 45 47 48 48 48 48 48 48 48 47
51 49 50 50 50 49 48 48 47 46 45 44 43 42 40 39 39 38 38 37 37 37 36 36 36 37 38 39 39 40 41 43 45 46 47 48 48 48 48 48 48 47 47
51 50 50 50 50 50 49 48 48 46 45 44 44 43 41 40 40 39 39 38 38 38 37 37 37 38 38 39 40 41 42 44 45 46 47 48 48 48 48 48 47 47 47
51 50 50 50 51 50 49 49 48 47 46 45 44 44 43 41 41 40 40 39 39 39 38 37 37 38 39 40 41 42 43 44 45 46 47 48 48 48 48 47 47 46 45
50 51 49 49 50 50 49 49 48 48 47 46 45 44 43 42 42 41 41 40 40 40 39 39 39 39 40 41 42 43 44 44 45 46 47 48 48 48 47 46 45 45 44
50 50 50 48 48 49 49 48 47 48 47 46 46 45 43 43 43 42 42 41 41 41 41 40 40 40 40 41 42 43 44 44 45 46 47 47 47 47 46 45 44 43 43
50 50 50 50 48 49 49 48 47 46 46 46 46 45 44 43 43 42 42 42 42 42 41 41 40 41 41 41 42 43 44 44 45 46 46 46 46 45 44 43 43 43 43
50 50 50 50 50 49 49 48 48 46 45 45 45 46 45 44 43 43 43 42 42 42 42 41 41 41 41 41 42 43 43 44 45 45 46 45 45 44 44 44 43 43 44
48 49 50 50 50 49 48 47 48 48 47 46 45 44 43 43 43 43 43 42 42 42 42 42 41 41 40 41 42 42 43 43 44 45 45 45 44 44 44 43 43 43 44
48 48 49 48 48 49 48 47 47 48 48 47 46 44 44 44 44 43 43 43 42 42 42 42 41 41 41 42 42 42 42 43 44 44 44 44 43 43 43 42 43 43 45
49 49 49 48 48 48 48 48 47 48 47 47 45 45 45 44 45 44 44 43 43 42 42 42 41 41 41 42 42 42 42 43 43 44 44 43 43 42 42 43 43 44 45
50 50 50 48 49 48 49 49 48 48 47 46 45 45 45 45 44 44 43 43 42 42 42 42 41 41 42 42 42 42 42 43 43 43 43 42 42 43 43 42 43 43 45
52 52 52 50 49 48 48 49 50 49 48 47 46 45 45 44 44 43 43 42 42 42 41 41 40 41 42 42 42 42 42 43 43 42 42 42 42 43 43 42 42 43 45
52 52 52 51 50 49 49 49 49 49 48 47 46 46 45 44 44 43 42 41 41 41 41 40 39 40 41 41 42 42 41 41 40 40 41 41 42 42 42 42 42 43 45
Wind_Direction
245 245 245 246 247 249 250 251 252 253 256 258 260 262 264 267 269 271 273 276 279 283 286 290 293 296 300 303 306 308 311 313 316 317 319 320 320 319 319 319 318 317 316
245 245 245 245 247 248 249 250 251 252 254 256 258 262 264 267 270 271 273 275 278 282 285 289 292 295 298 301 305 307 309 312 314 316 317 318 319 319 319 318 318 316 316
245 245 246 245 245 247 248 249 250 251 253 255 257 261 264 266 269 271 272 274 277 281 285 288 291 294 298 301 303 306 308 311 313 315 316 317 318 318 318 318 317 316 316
244 245 245 245 245 246 248 249 250 251 252 253 256 259 263 265 268 270 272 274 277 281 284 288 291 293 296 299 302 305 307 310 312 314 315 316 317 318 318 318 317 316 315
244 244 244 244 245 246 247 249 249 250 251 252 255 258 261 264 267 270 272 274 278 281 284 287 290 293 296 299 301 304 307 309 311 313 314 316 317 317 318 317 316 315 315
243 243 244 244 245 245 246 248 249 250 250 251 254 257 260 262 266 269 272 274 277 281 283 286 290 292 295 298 301 304 306 309 311 313 314 316 317 317 317 317 316 316 315
242 243 243 244 245 245 245 247 249 250 250 251 253 256 259 262 265 269 271 274 277 280 282 286 289 292 295 298 301 303 306 309 311 313 315 316 316 316 317 317 316 316 315
241 242 242 243 244 244 245 245 247 249 250 251 253 256 259 261 264 267 271 274 277 279 281 285 288 291 294 297 300 303 305 308 311 313 314 315 316 317 317 317 316 316 316
240 242 242 242 242 243 243 244 246 248 250 251 252 255 258 260 262 266 269 273 276 278 281 284 288 291 293 297 300 302 305 308 310 313 314 315 316 317 317 317 317 317 317
239 240 240 241 241 241 243 244 245 247 249 251 252 254 257 259 262 265 268 272 274 277 279 283 287 290 293 296 299 302 305 308 310 312 314 315 316 316 316 317 317 318 317
238 238 239 240 240 241 242 243 245 247 249 251 252 254 256 258 261 264 267 270 273 275 278 282 285 289 292 295 299 302 304 307 309 312 313 315 316 316 316 317 318 318 317
236 237 237 238 239 240 242 243 245 247 248 250 252 253 255 258 260 263 266 268 271 275 278 281 285 288 291 295 298 301 304 306 309 311 313 315 316 316 317 317 318 317 317
234 236 237 238 238 239 241 243 245 247 248 250 251 253 255 257 260 263 265 268 270 273 277 281 284 288 291 294 298 301 303 306 308 311 313 314 315 315 316 317 318 318 318
235 235 236 236 237 238 240 242 244 247 248 249 250 251 254 257 260 262 264 267 270 272 276 280 284 287 290 293 296 300 303 306 308 311 312 314 315 315 316 317 318 318 318
234 235 235 236 236 237 240 243 244 246 247 248 250 251 253 256 259 261 263 266 269 272 275 278 282 286 289 292 295 299 302 305 308 310 312 314 314 315 316 317 317 317 318
234 234 236 237 237 237 239 242 244 246 247 248 250 251 252 255 257 259 262 265 268 271 274 277 281 285 288 291 295 298 301 304 307 310 312 313 313 315 316 317 317 317 318
234 234 235 236 236 237 240 242 243 246 247 248 249 251 252 254 256 258 261 264 267 270 274 276 280 284 287 291 294 298 300 303 306 309 311 313 314 315 316 317 317 318 318
234 235 234 236 237 237 238 241 243 245 247 248 249 251 252 254 255 257 260 263 266 270 273 275 279 282 286 290 294 297 300 303 306 308 311 312 313 315 316 317 318 318 319
235 235 234 236 237 237 238 239 241 244 246 248 249 250 252 253 255 257 259 262 265 268 272 275 277 281 285 289 293 296 299 302 305 307 309 311 312 314 316 316 317 318 319
234 234 234 235 237 238 239 239 240 242 244 246 248 250 251 252 254 257 260 262 265 268 272 275 277 281 284 289 292 295 298 301 304 307 309 310 311 313 315 316 317 318 319
234 235 235 235 237 238 239 239 240 241 242 244 248 250 251 252 253 256 258 262 265 269 272 275 278 281 285 289 292 294 296 299 303 307 309 310 311 312 313 314 315 317 319
234 235 235 237 238 239 239 239 239 241 242 244 247 249 250 252 254 255 257 261 264 268 271 275 277 281 285 288 290 292 295 299 303 306 308 309 309 311 312 313 315 316 318
235 234 235 237 239 240 239 239 239 241 242 244 246 248 250 252 254 256 258 260 264 267 270 274 277 280 283 286 288 291 295 299 303 305 307 308 309 310 311 312 314 316 318
235 235 236 237 238 239 239 239 240 241 243 244 246 247 250 252 253 255 258 261 264 266 269 272 275 278 281 284 287 291 295 298 302 305 307 307 308 309 311 312 314 316 318
236 237 237 238 238 238 238 239 241 243 245 246 247 248 249 251 252 254 257 260 262 265 267 271 275 277 281 283 286 290 294 298 301 304 306 306 307 308 310 312 314 316 318
237 238 237 237 237 238 238 238 241 243 245 246 247 248 249 251 253 254 257 259 261 264 268 272 275 278 281 284 286 290 293 297 300 302 304 304 305 307 310 313 314 316 317
Height
5813 5816 5818 5820 5822 5823 5825 5827 5828 5829 5830 5830 5831 5831 5831 5831 5830 5830 5829 5829 5828 5827 5825 5823 5821 5819 5817 5814 5812 5809 5805 5802 5798 5794 5790 5786 5781 5776 5771 5766 5761 5756 5751
5805 5808 5810 5813 5815 5817 5818 5820 5822 5823 5824 5825 5826 5826 5826 5826 5825 5825 5824 5823 5823 5821 5820 5818 5816 5814 5812 5809 5807 5804 5800 5796 5793 5789 5784 5780 5775 5770 5765 5759 5754 5748 5743
5797 5800 5803 5805 5807 5810 5811 5813 5815 5816 5818 5819 5820 5820 5821 5820 5820 5819 5819 5818 5817 5816 5815 5813 5811 5809 5807 5804 5801 5798 5795 5791 5787 5783 5778 5773 5768 5763 5758 5752 5746 5741 5735
5788 5791 5794 5797 5799 5802 5804 5806 5808 5810 5811 5812 5813 5814 5814 5814 5814 5814 5813 5812 5811 5810 5809 5807 5805 5803 5801 5798 5795 5792 5789 5785 5781 5776 5772 5767 5761 5756 5750 5744 5739 5733 5727
5778 5782 5785 5788 5791 5794 5796 5799 5801 5802 5804 5806 5807 5807 5808 5808 5808 5808 5807 5806 5805 5804 5803 5801 5799 5797 5795 5792 5789 5786 5782 5778 5774 5770 5765 5760 5754 5749 5743 5737 5731 5724 5718
5768 5772 5775 5779 5782 5785 5788 5790 5793 5795 5797 5798 5799 5800 5801 5802 5802 5802 5801 5800 5799 5798 5796 5795 5793 5791 5789 5786 5783 5780 5776 5772 5767 5763 5758 5752 5747 5741 5735 5729 5722 5715 5709
5758 5762 5765 5769 5772 5776 5779 5782 5784 5786 5788 5790 5792 5793 5794 5795 5795 5795 5795 5794 5793 5791 5790 5789 5787 5785 5782 5779 5776 5773 5769 5765 5760 5755 5750 5745 5739 5733 5726 5720 5713 5706 5699
5746 5751 5755 5759 5763 5766 5769 5772 5775 5778 5780 5782 5784 5785 5786 5788 5788 5788 5788 5787 5786 5785 5783 5782 5780 5778 5775 5772 5769 5766 5762 5757 5753 5748 5742 5737 5731 5724 5718 5711 5704 5697 5690
5735 5740 5745 5749 5753 5756 5760 5763 5766 5769 5772 5774 5775 5777 5779 5780 5781 5781 5780 5780 5779 5778 5776 5775 5773 5771 5768 5765 5762 5759 5754 5750 5745 5740 5735 5729 5722 5716 5709 5702 5695 5688 5681
5724 5728 5733 5738 5742 5746 5750 5753 5756 5759 5762 5764 5766 5769 5771 5772 5773 5773 5773 5773 5772 5771 5769 5768 5766 5764 5761 5758 5755 5751 5747 5742 5737 5732 5726 5720 5714 5707 5700 5693 5686 5679 5672
5712 5717 5722 5727 5731 5736 5740 5743 5747 5750 5753 5755 5758 5760 5761 5763 5764 5765 5765 5765 5764 5763 5762 5760 5758 5756 5754 5751 5747 5743 5739 5735 5729 5724 5718 5712 5705 5698 5691 5684 5677 5670 5663
5700 5705 5710 5715 5720 5725 5729 5733 5737 5740 5743 5746 5748 5750 5752 5754 5756 5756 5756 5756 5756 5755 5754 5752 5750 5748 5746 5743 5739 5735 5731 5726 5721 5716 5710 5703 5696 5689 5682 5675 5668 5661 5654
5688 5693 5698 5703 5709 5714 5718 5722 5726 5730 5733 5736 5739 5741 5743 5745 5746 5747 5747 5747 5747 5747 5746 5744 5742 5740 5737 5734 5731 5727 5723 5718 5713 5707 5701 5694 5688 5681 5674 5666 5659 5652 5645
5676 5681 5686 5691 5697 5702 5707 5711 5715 5719 5723 5726 5729 5731 5733 5735 5737 5738 5738 5739 5739 5738 5737 5736 5734 5731 5729 5726 5722 5718 5714 5709 5704 5698 5692 5686 5679 5672 5665 5658 5650 5643 5636
5664 5669 5675 5680 5686 5691 5696 5700 5705 5709 5712 5716 5719 5721 5723 5725 5727 5728 5729 5729 5730 5729 5729 5727 5725 5723 5720 5717 5714 5710 5705 5700 5695 5689 5683 5677 5670 5663 5656 5649 5641 5634 5627
5651 5657 5663 5669 5674 5679 5685 5689 5694 5698 5702 5705 5708 5711 5713 5715 5717 5718 5719 5720 5720 5720 5720 5719 5716 5714 5711 5708 5704 5701 5696 5691 5686 5680 5674 5668 5661 5654 5647 5640 5633 5626 5619
5639 5645 5651 5657 5662 5668 5673 5678 5683 5687 5691 5695 5698 5701 5703 5705 5707 5708 5709 5710 5710 5710 5710 5709 5707 5704 5702 5699 5695 5691 5687 5682 5676 5671 5665 5658 5652 5645 5638 5631 5624 5617 5611
5627 5633 5639 5645 5651 5657 5662 5667 5671 5676 5680 5683 5687 5690 5692 5694 5696 5698 5699 5700 5700 5700 5699 5699 5697 5695 5692 5689 5686 5682 5677 5672 5667 5662 5656 5649 5643 5636 5630 5623 5616 5610 5603
5616 5621 5627 5634 5640 5645 5650 5655 5660 5664 5668 5672 5675 5679 5681 5684 5686 5688 5689 5690 5690 5689 5689 5688 5687 5685 5683 5680 5676 5672 5668 5663 5658 5652 5647 5641 5634 5628 5622 5615 5608 5602 5595
5604 5610 5616 5622 5628 5633 5638 5643 5648 5653 5657 5660 5664 5667 5670 5673 5675 5677 5678 5679 5679 5679 5679 5678 5677 5675 5673 5670 5666 5663 5658 5654 5649 5643 5638 5632 5626 5620 5614 5607 5601 5594 5587
5592 5598 5604 5610 5616 5621 5627 5631 5636 5641 5645 5649 5653 5656 5659 5662 5664 5666 5668 5669 5669 5669 5669 5668 5667 5665 5663 5660 5657 5653 5649 5644 5639 5634 5629 5624 5618 5612 5605 5599 5593 5586 5579
5581 5586 5593 5599 5604 5610 5615 5620 5624 5629 5633 5637 5641 5645 5648 5651 5653 5655 5656 5658 5658 5658 5658 5658 5657 5656 5654 5651 5647 5643 5639 5635 5631 5627 5621 5615 5609 5603 5597 5591 5585 5578 5571
5569 5575 5581 5587 5593 5598 5603 5608 5613 5617 5621 5626 5630 5633 5637 5640 5642 5644 5645 5647 5647 5648 5648 5648 5647 5646 5644 5641 5637 5634 5630 5626 5622 5617 5611 5606 5600 5595 5589 5583 5576 5570 5563
5557 5563 5569 5575 5581 5586 5591 5596 5601 5605 5609 5614 5618 5622 5625 5628 5630 5632 5634 5635 5636 5637 5638 5637 5637 5635 5633 5630 5627 5624 5620 5616 5612 5607 5602 5597 5591 5586 5580 5574 5568 5561 5555
5546 5551 5557 5563 5569 5574 5579 5583 5588 5593 5598 5603 5607 5610 5613 5616 5619 5621 5622 5624 5625 5626 5626 5626 5625 5624 5622 5620 5617 5614 5611 5607 5603 5598 5593 5588 5583 5577 5571 5565 5559 5553 5546
5534 5539 5545 5551 5557 5562 5567 5571 5576 5581 5587 5591 5595 5599 5602 5605 5607 5609 5611 5613 5614 5615 5615 5615 5614 5613 5612 5609 5607 5604 5601 5597 5593 5589 5585 5579 5574 5568 5563 5557 5551 5544 5537